User: anonymous   Login
Location: Fort Wayne
(41.1310°N, 85.1290°W)
Time: 20:58:08
(UTC-04:00)
Language:

IDEFIX/ARIANE 42P - Orbit

View from above orbital plane
View from above orbital plane
View from above satellite
View from above satellite

Ground track
Ground track

The orbit data is extracted from the following two-line orbital elements,

1 27422U 02021B   16237.67984695 -.00000042  00000-0 -40910-6 0  9993
2 27422  98.2304 248.4172 0013188  40.2993 319.9165 14.29247830744325
Epoch (UTC): 24 August 2016 16:18:58
Eccentricity: 0.0013188
inclination: 98.2304°
perigee height: 785 km
apogee height: 804 km
right ascension of ascending node: 248.4172°
argument of perigee: 40.2993°
revolutions per day: 14.29247830
mean anomaly at epoch: 319.9165°
orbit number at epoch: 74432

The dashed part of the orbit path shows where the satellite is in the earth's shadow,  

DLR